QPF
0.00 0.00 0.00 0.00 0.00 0.00 0.00 0.00 0.00 0.00 0.00 0.00 0.00 0.00 0.00 0.00 0.00 0.00 0.00 0.00 0.00 0.00 0.00 0.00 0.00 0.00 0.00 0.00 0.00 0.00 0.00 0.00 0.00 0.00 0.00 0.00 0.00 0.00 0.00 0.00 0.00 0.00 0.00
0.00 0.00 0.00 0.00 0.00 0.00 0.00 0.00 0.00 0.00 0.00 0.00 0.00 0.00 0.00 0.00 0.00 0.00 0.00 0.00 0.00 0.00 0.00 0.00 0.00 0.00 0.00 0.00 0.00 0.00 0.00 0.00 0.00 0.00 0.00 0.00 0.00 0.00 0.00 0.00 0.00 0.00 0.00
0.00 0.00 0.00 0.00 0.00 0.00 0.00 0.00 0.00 0.00 0.00 0.00 0.00 0.00 0.00 0.00 0.00 0.00 0.00 0.00 0.00 0.00 0.00 0.00 0.00 0.00 0.00 0.00 0.00 0.00 0.00 0.00 0.00 0.00 0.00 0.00 0.00 0.00 0.00 0.00 0.00 0.00 0.00
0.00 0.00 0.00 0.00 0.00 0.00 0.00 0.00 0.00 0.00 0.00 0.00 0.00 0.00 0.00 0.00 0.00 0.00 0.00 0.00 0.00 0.00 0.00 0.00 0.00 0.00 0.00 0.00 0.00 0.00 0.00 0.00 0.00 0.00 0.00 0.00 0.00 0.00 0.00 0.00 0.00 0.00 0.00
0.00 0.00 0.00 0.00 0.00 0.00 0.00 0.00 0.00 0.00 0.00 0.00 0.00 0.00 0.00 0.00 0.00 0.00 0.00 0.00 0.00 0.00 0.00 0.00 0.00 0.00 0.00 0.00 0.00 0.00 0.00 0.00 0.00 0.00 0.00 0.00 0.00 0.00 0.00 0.00 0.00 0.00 0.00
0.00 0.00 0.00 0.00 0.00 0.00 0.00 0.00 0.00 0.00 0.00 0.00 0.00 0.00 0.00 0.00 0.00 0.00 0.00 0.00 0.00 0.00 0.00 0.00 0.00 0.00 0.00 0.00 0.00 0.00 0.00 0.00 0.00 0.00 0.00 0.00 0.00 0.00 0.00 0.00 0.00 0.00 0.00
0.00 0.00 0.00 0.00 0.00 0.00 0.00 0.00 0.00 0.00 0.00 0.00 0.00 0.00 0.00 0.00 0.00 0.00 0.00 0.00 0.00 0.00 0.00 0.00 0.00 0.00 0.00 0.00 0.00 0.00 0.00 0.00 0.00 0.00 0.00 0.00 0.00 0.00 0.00 0.00 0.00 0.00 0.00
0.00 0.00 0.00 0.00 0.00 0.00 0.00 0.00 0.00 0.00 0.00 0.00 0.00 0.00 0.00 0.00 0.00 0.00 0.00 0.00 0.00 0.00 0.00 0.00 0.00 0.00 0.00 0.00 0.00 0.00 0.00 0.00 0.00 0.00 0.00 0.00 0.00 0.00 0.00 0.00 0.00 0.00 0.00
0.00 0.00 0.00 0.00 0.00 0.00 0.00 0.00 0.00 0.00 0.00 0.00 0.00 0.00 0.00 0.00 0.00 0.00 0.00 0.00 0.00 0.00 0.00 0.00 0.00 0.00 0.00 0.00 0.00 0.00 0.00 0.00 0.00 0.00 0.00 0.00 0.00 0.00 0.00 0.00 0.00 0.00 0.00
0.00 0.00 0.00 0.00 0.00 0.00 0.00 0.00 0.00 0.00 0.00 0.00 0.00 0.00 0.00 0.00 0.00 0.00 0.00 0.00 0.00 0.00 0.00 0.00 0.00 0.00 0.00 0.00 0.00 0.00 0.00 0.00 0.00 0.00 0.00 0.00 0.00 0.00 0.00 0.00 0.00 0.00 0.00
0.00 0.00 0.00 0.00 0.00 0.00 0.00 0.00 0.00 0.00 0.00 0.00 0.00 0.00 0.00 0.00 0.00 0.00 0.00 0.00 0.00 0.00 0.00 0.00 0.00 0.00 0.00 0.00 0.00 0.00 0.00 0.00 0.00 0.00 0.00 0.00 0.00 0.00 0.00 0.00 0.00 0.00 0.00
0.00 0.00 0.00 0.00 0.00 0.00 0.00 0.00 0.00 0.00 0.00 0.00 0.00 0.00 0.00 0.00 0.00 0.00 0.00 0.00 0.00 0.00 0.00 0.00 0.00 0.01 0.00 0.00 0.00 0.00 0.00 0.00 0.00 0.00 0.00 0.00 0.00 0.00 0.00 0.00 0.00 0.00 0.00
0.00 0.00 0.00 0.00 0.00 0.00 0.00 0.00 0.00 0.00 0.00 0.00 0.00 0.00 0.00 0.00 0.00 0.00 0.00 0.00 0.00 0.00 0.00 0.00 0.00 0.00 0.01 0.00 0.00 0.00 0.00 0.00 0.00 0.00 0.00 0.00 0.00 0.00 0.00 0.00 0.00 0.00 0.00
0.00 0.00 0.00 0.00 0.00 0.00 0.00 0.00 0.00 0.00 0.00 0.00 0.00 0.00 0.00 0.00 0.00 0.00 0.00 0.00 0.00 0.00 0.00 0.00 0.00 0.00 0.00 0.00 0.00 0.00 0.00 0.00 0.00 0.00 0.00 0.00 0.00 0.00 0.00 0.00 0.00 0.00 0.00
0.00 0.00 0.00 0.00 0.00 0.00 0.00 0.00 0.00 0.00 0.00 0.00 0.00 0.00 0.00 0.00 0.00 0.00 0.00 0.00 0.00 0.00 0.00 0.00 0.00 0.00 0.00 0.00 0.00 0.00 0.00 0.00 0.00 0.00 0.00 0.00 0.00 0.00 0.00 0.00 0.00 0.00 0.00
0.00 0.00 0.00 0.00 0.00 0.00 0.00 0.00 0.00 0.00 0.00 0.00 0.00 0.00 0.00 0.00 0.00 0.00 0.00 0.00 0.00 0.00 0.00 0.00 0.00 0.00 0.00 0.00 0.00 0.00 0.00 0.00 0.00 0.00 0.00 0.00 0.00 0.00 0.00 0.00 0.00 0.00 0.00
0.00 0.00 0.00 0.00 0.00 0.00 0.00 0.00 0.00 0.00 0.00 0.00 0.00 0.00 0.00 0.00 0.00 0.00 0.00 0.00 0.00 0.00 0.00 0.00 0.00 0.00 0.00 0.00 0.00 0.00 0.00 0.00 0.00 0.00 0.00 0.00 0.00 0.00 0.00 0.00 0.00 0.00 0.00
0.00 0.00 0.00 0.00 0.00 0.00 0.00 0.00 0.00 0.00 0.00 0.00 0.00 0.00 0.00 0.00 0.00 0.00 0.00 0.00 0.00 0.00 0.00 0.00 0.00 0.00 0.00 0.00 0.00 0.00 0.00 0.00 0.00 0.00 0.00 0.00 0.00 0.00 0.00 0.00 0.00 0.00 0.00
0.00 0.00 0.00 0.00 0.00 0.00 0.00 0.00 0.00 0.00 0.00 0.00 0.00 0.00 0.00 0.00 0.00 0.00 0.00 0.00 0.00 0.00 0.00 0.00 0.00 0.00 0.00 0.00 0.00 0.00 0.00 0.00 0.00 0.00 0.00 0.00 0.00 0.00 0.00 0.00 0.00 0.00 0.00
0.00 0.00 0.00 0.00 0.00 0.00 0.00 0.00 0.00 0.00 0.00 0.00 0.00 0.00 0.00 0.00 0.00 0.00 0.00 0.00 0.00 0.00 0.00 0.00 0.00 0.00 0.00 0.00 0.00 0.00 0.00 0.00 0.00 0.00 0.00 0.00 0.00 0.00 0.00 0.00 0.00 0.00 0.00
0.00 0.00 0.00 0.00 0.00 0.00 0.00 0.00 0.00 0.00 0.00 0.00 0.00 0.00 0.00 0.00 0.00 0.00 0.00 0.00 0.00 0.00 0.00 0.00 0.00 0.00 0.00 0.00 0.00 0.00 0.00 0.00 0.00 0.00 0.00 0.00 0.00 0.00 0.00 0.00 0.00 0.00 0.00
0.00 0.00 0.00 0.00 0.00 0.00 0.00 0.00 0.00 0.00 0.00 0.00 0.00 0.00 0.00 0.00 0.00 0.00 0.00 0.00 0.00 0.00 0.00 0.00 0.00 0.00 0.00 0.00 0.00 0.00 0.00 0.00 0.00 0.00 0.00 0.00 0.00 0.00 0.00 0.00 0.00 0.00 0.00
0.00 0.00 0.00 0.00 0.00 0.00 0.00 0.00 0.00 0.00 0.00 0.00 0.00 0.00 0.00 0.00 0.00 0.00 0.00 0.00 0.00 0.00 0.00 0.00 0.00 0.00 0.00 0.00 0.00 0.00 0.00 0.00 0.00 0.00 0.00 0.00 0.00 0.00 0.00 0.00 0.00 0.00 0.00
0.00 0.00 0.00 0.00 0.00 0.00 0.00 0.00 0.00 0.00 0.00 0.00 0.00 0.00 0.00 0.00 0.00 0.00 0.00 0.00 0.00 0.00 0.00 0.00 0.00 0.00 0.00 0.00 0.00 0.00 0.00 0.00 0.00 0.00 0.00 0.00 0.00 0.00 0.00 0.00 0.00 0.00 0.00
0.00 0.00 0.00 0.00 0.00 0.00 0.00 0.00 0.00 0.00 0.00 0.00 0.00 0.00 0.00 0.00 0.00 0.00 0.00 0.00 0.00 0.00 0.00 0.00 0.00 0.00 0.00 0.00 0.00 0.00 0.00 0.00 0.00 0.00 0.00 0.00 0.00 0.00 0.00 0.00 0.00 0.00 0.00
0.00 0.00 0.00 0.00 0.00 0.00 0.00 0.00 0.00 0.00 0.00 0.00 0.00 0.00 0.00 0.00 0.00 0.00 0.00 0.00 0.00 0.00 0.00 0.00 0.00 0.00 0.00 0.00 0.00 0.00 0.00 0.00 0.00 0.00 0.00 0.00 0.00 0.00 0.00 0.00 0.00 0.00 0.00
MSLP
1014.38 1014.23 1014.37 1014.29 1014.29 1014.43 1014.59 1014.66 1014.95 1015.35 1015.63 1015.93 1016.33 1016.87 1017.12 1017.35 1017.62 1017.95 1018.16 1018.54 1018.84 1019.36 1019.60 1020.14 1020.33 1020.84 1021.19 1021.81 1022.45 1022.95 1023.99 1024.51 1025.94 1026.57 1026.69 1027.33 1027.17 1027.60 1028.12 1028.55 1029.09 1029.47 1029.76
1014.11 1014.11 1014.07 1013.98 1013.97 1014.02 1014.04 1014.09 1014.37 1014.58 1014.91 1015.22 1015.61 1016.14 1016.52 1016.69 1016.92 1017.19 1017.50 1017.75 1018.14 1018.55 1018.86 1019.43 1019.63 1020.28 1020.77 1021.27 1021.70 1022.47 1023.31 1024.18 1024.51 1026.19 1026.61 1027.18 1027.00 1027.44 1027.90 1028.36 1028.68 1029.13 1029.14
1013.51 1013.60 1013.58 1013.54 1013.63 1013.66 1013.63 1013.66 1013.90 1014.17 1014.50 1014.87 1015.35 1015.78 1016.14 1016.38 1016.64 1016.81 1016.95 1017.18 1017.42 1017.71 1018.09 1018.41 1018.82 1019.63 1020.27 1020.85 1021.41 1022.19 1022.84 1023.47 1024.25 1025.46 1026.05 1026.25 1026.60 1027.10 1027.85 1028.12 1028.33 1028.49 1028.55
1013.02 1013.10 1013.08 1012.82 1012.74 1012.72 1012.92 1013.13 1013.30 1013.60 1013.95 1014.45 1014.74 1015.04 1015.51 1015.95 1016.16 1016.34 1016.72 1016.92 1017.12 1017.22 1017.37 1017.76 1018.12 1018.59 1019.41 1020.33 1021.04 1021.83 1022.50 1023.51 1024.30 1024.89 1025.07 1025.74 1026.20 1027.03 1027.35 1027.78 1027.99 1028.03 1028.16
1012.63 1012.72 1012.47 1012.21 1012.28 1012.45 1012.65 1012.77 1012.93 1013.13 1013.30 1013.86 1014.45 1014.83 1015.12 1015.54 1015.81 1016.20 1016.34 1016.67 1016.94 1017.10 1017.38 1017.64 1018.00 1018.34 1019.00 1019.59 1020.45 1021.23 1022.03 1022.99 1023.71 1024.23 1024.68 1025.45 1026.04 1026.46 1026.86 1027.15 1027.51 1027.60 1027.61
1012.15 1012.02 1011.94 1012.10 1012.25 1012.34 1012.35 1012.50 1012.74 1013.16 1013.44 1013.74 1014.10 1014.47 1014.96 1014.98 1015.21 1015.56 1015.97 1016.34 1016.58 1016.98 1017.43 1017.85 1018.21 1018.50 1019.02 1019.42 1020.07 1020.47 1021.05 1022.32 1023.06 1023.62 1024.38 1024.84 1025.54 1025.92 1026.27 1026.63 1027.03 1027.34 1027.50
1012.33 1012.01 1011.85 1012.15 1012.32 1012.37 1012.23 1012.33 1012.54 1012.89 1013.30 1013.72 1014.24 1014.62 1014.77 1014.81 1014.89 1015.14 1015.68 1015.96 1016.28 1016.67 1017.08 1017.57 1018.22 1018.57 1019.03 1019.60 1019.98 1020.79 1021.41 1021.76 1021.82 1022.29 1023.64 1024.35 1025.01 1025.13 1025.54 1026.04 1026.35 1026.80 1026.76
1012.60 1012.36 1012.07 1011.95 1012.11 1012.42 1012.70 1012.73 1012.89 1012.94 1013.26 1013.72 1014.13 1014.40 1014.77 1014.86 1014.87 1015.03 1015.45 1015.81 1016.10 1016.35 1016.70 1017.09 1017.69 1018.28 1018.77 1019.54 1020.37 1021.17 1021.48 1021.96 1022.42 1022.65 1023.30 1023.90 1024.38 1024.61 1025.11 1025.44 1025.99 1026.22 1026.52
1012.96 1012.74 1012.55 1012.36 1012.14 1012.22 1012.55 1012.84 1013.16 1013.45 1013.65 1013.88 1013.99 1014.39 1014.62 1014.72 1014.64 1014.98 1015.46 1015.83 1016.15 1016.50 1016.90 1017.40 1017.87 1018.36 1018.91 1019.68 1020.57 1021.21 1021.75 1022.29 1022.48 1022.77 1023.08 1023.71 1024.05 1024.37 1025.08 1025.50 1026.08 1026.51 1026.56
1013.16 1012.91 1012.58 1012.44 1012.61 1012.74 1012.73 1013.02 1013.12 1013.24 1013.52 1013.70 1014.06 1014.36 1014.50 1014.75 1014.91 1015.09 1015.75 1015.99 1016.46 1016.89 1017.37 1017.78 1018.20 1018.53 1018.94 1019.67 1020.36 1020.96 1021.49 1021.98 1022.55 1022.84 1023.16 1023.39 1023.81 1024.00 1024.25 1024.69 1025.13 1025.85 1026.25
1013.48 1013.44 1013.27 1012.92 1012.71 1012.67 1013.12 1013.48 1013.61 1013.68 1013.92 1014.12 1014.35 1014.76 1014.80 1014.83 1014.91 1015.27 1016.00 1016.42 1016.84 1017.34 1017.67 1018.12 1018.35 1018.63 1019.04 1019.51 1020.09 1020.68 1021.08 1021.45 1022.06 1022.54 1022.94 1023.29 1023.69 1023.97 1024.31 1024.43 1024.78 1025.13 1025.60
1013.63 1013.71 1013.68 1013.81 1013.57 1013.23 1013.33 1013.90 1013.86 1014.12 1014.31 1014.75 1014.94 1014.95 1015.02 1015.10 1015.08 1015.31 1016.06 1016.54 1016.89 1017.36 1017.66 1017.88 1018.19 1018.43 1018.86 1019.38 1019.90 1020.53 1020.59 1021.15 1021.78 1022.25 1022.72 1023.00 1023.45 1023.49 1023.91 1024.08 1024.46 1024.89 1025.22
1013.34 1013.75 1014.16 1013.97 1014.02 1014.06 1013.96 1014.07 1014.18 1014.31 1014.62 1014.64 1015.13 1015.27 1015.45 1015.52 1015.40 1015.49 1016.05 1016.49 1016.89 1017.28 1017.66 1018.06 1018.50 1018.88 1019.32 1019.80 1019.94 1020.39 1020.75 1021.36 1021.78 1022.24 1022.34 1022.48 1022.74 1022.95 1023.42 1024.00 1024.55 1025.07 1025.42
1013.18 1013.71 1013.84 1014.52 1014.60 1014.45 1014.37 1014.22 1014.21 1014.56 1014.65 1014.73 1014.98 1015.22 1015.66 1015.69 1015.89 1016.06 1016.32 1016.64 1016.84 1017.37 1017.69 1017.88 1018.34 1018.90 1019.41 1019.91 1020.22 1020.45 1020.55 1020.77 1021.14 1021.51 1021.85 1022.12 1022.71 1023.04 1023.45 1023.72 1024.56 1025.31 1025.96
1013.44 1013.13 1013.57 1014.43 1014.66 1014.55 1014.48 1014.28 1014.52 1014.91 1014.82 1014.84 1014.99 1015.07 1015.63 1016.08 1016.05 1016.39 1016.62 1016.84 1017.00 1017.52 1017.82 1018.05 1018.29 1018.82 1019.28 1019.57 1019.98 1020.32 1020.57 1020.70 1021.16 1021.56 1021.93 1022.40 1022.91 1023.40 1023.92 1024.33 1024.71 1025.41 1026.09
1013.86 1013.36 1013.13 1014.26 1014.37 1014.51 1014.19 1014.04 1014.44 1014.60 1014.61 1014.93 1015.03 1015.15 1015.41 1015.57 1015.89 1016.34 1016.80 1017.05 1017.40 1017.63 1018.08 1018.59 1018.82 1019.33 1019.67 1020.01 1020.27 1020.47 1020.87 1020.96 1021.27 1021.74 1022.28 1022.69 1023.23 1023.62 1023.97 1024.80 1025.48 1025.80 1026.21
1014.08 1013.23 1013.56 1013.93 1014.32 1014.12 1014.86 1014.43 1014.85 1015.74 1015.38 1015.34 1015.41 1015.47 1015.70 1015.56 1015.89 1016.29 1016.64 1017.24 1017.59 1018.08 1018.72 1019.23 1019.41 1019.65 1019.97 1020.30 1020.64 1021.14 1021.47 1021.57 1021.81 1022.18 1022.71 1023.08 1023.71 1024.09 1024.53 1025.29 1026.04 1026.38 1026.66
1013.97 1013.81 1013.90 1013.95 1014.40 1014.74 1015.17 1015.83 1015.90 1015.84 1016.31 1016.42 1016.39 1016.33 1016.20 1016.38 1016.49 1016.69 1017.06 1017.75 1018.50 1019.00 1019.70 1020.21 1020.37 1020.69 1020.80 1021.04 1021.66 1022.22 1022.44 1022.51 1022.68 1022.93 1023.41 1023.69 1024.10 1024.59 1025.18 1025.77 1026.15 1026.40 1026.90
1014.21 1013.76 1013.92 1014.61 1014.91 1014.71 1015.36 1016.15 1016.48 1016.70 1016.92 1017.61 1017.77 1017.69 1017.84 1017.78 1018.00 1018.15 1018.12 1019.33 1020.52 1021.17 1021.46 1021.92 1021.89 1021.99 1022.30 1022.43 1022.79 1022.92 1023.00 1023.24 1023.24 1023.63 1023.87 1024.13 1024.64 1025.28 1025.79 1026.14 1026.45 1026.80 1027.15
1014.52 1014.77 1014.52 1015.05 1015.54 1015.52 1015.82 1016.39 1017.26 1017.78 1018.29 1018.99 1019.37 1019.42 1019.56 1019.44 1020.07 1020.52 1020.94 1021.18 1021.60 1022.54 1022.69 1022.88 1022.84 1022.81 1023.17 1023.27 1023.52 1023.72 1023.75 1023.89 1024.05 1024.28 1024.53 1024.87 1025.26 1025.52 1026.12 1026.53 1026.64 1026.92 1027.21
1014.30 1015.06 1015.63 1016.13 1016.40 1016.27 1016.55 1017.31 1017.80 1018.44 1019.37 1019.95 1020.10 1019.94 1020.62 1020.91 1021.66 1022.16 1022.50 1022.69 1022.64 1022.80 1022.92 1023.19 1023.36 1023.54 1023.72 1023.91 1024.13 1024.16 1024.21 1024.28 1024.36 1024.56 1024.85 1025.18 1025.61 1026.25 1026.05 1026.21 1026.57 1026.87 1027.27
1014.98 1015.76 1016.71 1016.99 1017.14 1017.18 1017.65 1018.20 1018.65 1019.57 1020.62 1021.05 1021.23 1021.20 1021.38 1021.86 1022.42 1023.05 1023.39 1023.36 1023.66 1023.91 1024.10 1023.92 1024.18 1024.40 1024.38 1024.62 1024.84 1024.64 1024.59 1024.65 1024.75 1024.99 1025.32 1025.45 1025.74 1025.94 1026.16 1026.35 1026.55 1026.79 1027.12
1016.08 1016.93 1017.82 1018.16 1018.23 1018.49 1018.75 1019.37 1019.80 1020.34 1021.06 1021.73 1022.19 1022.48 1022.76 1023.04 1023.08 1023.50 1023.76 1024.09 1024.36 1024.24 1024.29 1024.26 1024.45 1024.73 1024.55 1024.53 1024.64 1024.77 1024.82 1024.70 1024.78 1024.99 1025.28 1025.34 1025.61 1025.77 1025.98 1026.21 1026.50 1026.99 1027.09
1017.16 1017.65 1018.49 1018.85 1019.26 1019.61 1019.87 1020.29 1020.75 1021.39 1022.04 1022.49 1022.82 1023.06 1023.20 1023.43 1023.69 1023.95 1024.12 1024.27 1024.16 1024.41 1024.45 1024.50 1024.60 1024.64 1024.58 1024.48 1024.50 1024.50 1024.42 1024.46 1024.52 1024.55 1024.74 1025.11 1025.31 1025.51 1025.71 1025.97 1026.16 1026.44 1026.58
1018.31 1018.91 1019.03 1019.36 1019.79 1020.43 1020.90 1021.27 1021.48 1021.94 1022.52 1022.81 1023.57 1023.63 1023.66 1023.91 1024.13 1024.25 1024.42 1024.24 1024.24 1024.39 1024.31 1024.28 1024.36 1024.33 1024.27 1024.17 1024.17 1024.03 1023.95 1023.92 1024.01 1024.21 1024.52 1024.67 1024.83 1025.06 1025.31 1025.52 1025.70 1025.87 1026.08
1019.66 1019.91 1019.91 1020.22 1020.66 1020.93 1021.32 1021.80 1022.36 1022.92 1023.35 1023.59 1023.68 1023.83 1024.01 1024.21 1024.38 1024.37 1024.28 1024.44 1024.66 1024.39 1024.30 1024.22 1024.14 1023.92 1023.79 1023.78 1023.63 1023.43 1023.38 1023.35 1023.50 1023.67 1024.02 1024.31 1024.51 1024.64 1024.83 1024.96 1025.13 1025.34 1025.55
Thickness
5651 5651 5650 5650 5648 5645 5642 5638 5632 5625 5619 5613 5604 5599 5595 5590 5586 5580 5576 5569 5563 5555 5550 5543 5538 5530 5524 5515 5505 5498 5485 5477 5463 5454 5449 5439 5435 5428 5419 5410 5400 5390 5380
5641 5640 5640 5638 5636 5635 5632 5628 5622 5618 5611 5605 5598 5592 5587 5582 5577 5573 5567 5562 5555 5548 5543 5535 5531 5521 5515 5507 5499 5489 5479 5468 5463 5444 5435 5427 5424 5416 5407 5398 5388 5376 5370
5632 5631 5630 5628 5626 5623 5621 5617 5613 5607 5601 5594 5588 5581 5575 5570 5565 5561 5557 5552 5546 5542 5536 5530 5524 5513 5505 5496 5488 5478 5469 5460 5449 5436 5428 5420 5412 5404 5392 5384 5374 5365 5357
5622 5620 5620 5620 5618 5617 5612 5607 5603 5598 5592 5585 5579 5574 5567 5560 5556 5552 5546 5541 5536 5532 5528 5522 5516 5509 5499 5487 5478 5468 5459 5446 5434 5426 5418 5408 5399 5387 5379 5369 5360 5352 5344
5609 5606 5608 5608 5605 5602 5599 5595 5592 5588 5584 5576 5568 5562 5557 5550 5546 5539 5535 5530 5524 5520 5514 5509 5503 5496 5487 5478 5468 5457 5446 5432 5423 5414 5405 5394 5383 5374 5365 5354 5345 5338 5332
5595 5596 5596 5592 5589 5587 5585 5583 5579 5573 5568 5563 5557 5551 5544 5542 5538 5532 5525 5518 5513 5507 5500 5493 5486 5481 5473 5466 5456 5448 5438 5421 5409 5400 5389 5382 5368 5358 5347 5339 5329 5322 5318
5581 5581 5580 5577 5574 5572 5572 5570 5567 5561 5555 5549 5542 5536 5533 5529 5526 5521 5513 5506 5501 5495 5488 5480 5471 5465 5458 5448 5441 5429 5418 5408 5403 5394 5377 5364 5351 5343 5334 5326 5319 5310 5304
5564 5564 5565 5565 5561 5556 5552 5550 5548 5544 5539 5533 5525 5520 5515 5511 5511 5506 5499 5491 5486 5481 5475 5468 5459 5451 5444 5431 5419 5408 5399 5389 5380 5373 5361 5348 5338 5330 5320 5312 5304 5297 5288
5542 5544 5545 5546 5545 5542 5537 5532 5528 5522 5518 5513 5508 5502 5498 5493 5493 5487 5480 5473 5468 5462 5455 5447 5439 5431 5422 5411 5398 5388 5378 5368 5359 5350 5342 5331 5323 5314 5302 5295 5283 5276 5269
5520 5522 5525 5522 5519 5517 5517 5511 5506 5502 5499 5495 5489 5482 5478 5473 5470 5466 5457 5452 5445 5438 5431 5424 5417 5409 5402 5392 5382 5371 5361 5350 5341 5333 5325 5317 5308 5300 5291 5283 5274 5264 5257
5493 5491 5492 5494 5496 5494 5488 5483 5479 5478 5474 5469 5464 5457 5454 5451 5448 5442 5433 5428 5421 5414 5407 5400 5394 5390 5381 5373 5363 5353 5346 5340 5331 5321 5313 5305 5295 5287 5277 5270 5262 5253 5242
5470 5467 5465 5463 5464 5465 5463 5455 5453 5450 5447 5440 5436 5433 5429 5426 5424 5420 5411 5405 5400 5393 5387 5382 5376 5371 5363 5355 5348 5339 5336 5327 5316 5309 5299 5291 5282 5275 5264 5257 5249 5239 5229
5453 5449 5443 5443 5440 5437 5437 5433 5429 5426 5423 5420 5414 5410 5406 5403 5402 5400 5393 5388 5382 5377 5370 5363 5356 5351 5345 5338 5334 5325 5319 5311 5302 5293 5287 5279 5271 5263 5254 5243 5234 5222 5211
5438 5432 5429 5421 5416 5413 5413 5412 5409 5404 5404 5402 5397 5394 5389 5385 5382 5378 5374 5370 5367 5360 5355 5351 5345 5337 5329 5322 5315 5310 5305 5299 5292 5284 5276 5268 5257 5250 5240 5232 5218 5204 5190
5416 5416 5412 5403 5397 5394 5394 5393 5390 5384 5383 5382 5377 5376 5370 5364 5363 5361 5357 5353 5349 5343 5339 5335 5330 5323 5316 5309 5301 5294 5287 5281 5275 5267 5260 5250 5240 5230 5220 5209 5198 5184 5172
5391 5395 5396 5386 5383 5380 5382 5380 5375 5371 5372 5366 5364 5363 5359 5357 5353 5347 5341 5336 5330 5327 5321 5315 5310 5303 5297 5292 5286 5279 5271 5266 5259 5250 5239 5230 5219 5210 5200 5186 5173 5162 5152
5370 5377 5375 5372 5368 5366 5357 5360 5355 5345 5348 5349 5348 5347 5344 5344 5338 5333 5329 5321 5315 5308 5300 5295 5292 5287 5281 5274 5268 5258 5252 5246 5239 5230 5219 5209 5197 5187 5177 5163 5149 5139 5126
5354 5357 5357 5357 5350 5346 5341 5333 5331 5331 5328 5326 5327 5325 5326 5322 5319 5316 5311 5303 5293 5287 5281 5276 5272 5266 5261 5253 5244 5234 5228 5222 5215 5207 5196 5187 5176 5163 5149 5137 5127 5113 5101
5337 5341 5341 5335 5330 5332 5327 5319 5314 5312 5310 5302 5299 5299 5296 5295 5292 5290 5289 5276 5265 5258 5252 5246 5242 5237 5231 5226 5219 5213 5207 5199 5192 5182 5172 5162 5150 5136 5122 5111 5101 5090 5076
5318 5318 5320 5317 5312 5310 5308 5303 5295 5292 5287 5277 5272 5271 5268 5267 5261 5256 5252 5248 5243 5233 5227 5223 5218 5215 5208 5204 5197 5189 5183 5175 5167 5156 5146 5134 5121 5109 5097 5084 5074 5062 5052
5305 5301 5297 5293 5291 5291 5288 5282 5278 5272 5263 5255 5252 5255 5249 5244 5236 5231 5227 5224 5223 5218 5214 5207 5203 5198 5191 5183 5175 5168 5159 5151 5140 5129 5117 5105 5093 5079 5069 5060 5048 5040 5033
5287 5282 5275 5273 5272 5270 5266 5261 5257 5249 5240 5236 5233 5235 5232 5226 5219 5213 5208 5205 5201 5198 5194 5190 5183 5177 5170 5162 5154 5144 5133 5123 5112 5101 5089 5077 5065 5054 5044 5035 5028 5022 5016
5265 5261 5254 5250 5248 5247 5245 5240 5236 5232 5226 5219 5215 5212 5208 5204 5202 5197 5193 5187 5184 5181 5176 5170 5163 5155 5149 5141 5132 5122 5110 5099 5089 5078 5064 5053 5042 5033 5025 5019 5011 5004 4999
5245 5242 5236 5232 5230 5226 5224 5220 5217 5211 5206 5202 5199 5196 5193 5188 5183 5180 5175 5172 5168 5162 5155 5148 5142 5134 5127 5118 5107 5096 5086 5075 5064 5053 5044 5036 5026 5017 5010 5002 4996 4991 4989
5223 5220 5219 5217 5214 5209 5206 5203 5201 5196 5192 5189 5181 5179 5175 5171 5167 5162 5159 5155 5150 5143 5136 5128 5120 5111 5103 5093 5082 5072 5062 5051 5045 5037 5028 5021 5013 5004 4996 4989 4985 4982 4978
5201 5200 5202 5200 5197 5196 5193 5190 5184 5179 5174 5171 5168 5164 5160 5155 5149 5146 5144 5139 5130 5122 5114 5106 5097 5088 5079 5069 5060 5052 5044 5037 5028 5021 5014 5007 4999 4991 4983 4978 4975 4972 4969